Regional Weather Roundup
Issued by NWS Little Rock, AR

Home | Current Version | Previous Version | Graphics & Text | Print | Product List | Glossary On
Versions: 1 2 3 4 5 6 7 8 9 10 11 12 13 14 15 16 17 18 19 20 21 22 23 24 25 26 27 28 29 30 31 32 33 34 35 36 37 38 39 40 41 42 43 44 45 46 47 48 49 50
000
ASUS44 KLZK 281705
RWRLZK

WEATHER ROUNDUP FOR ARKANSAS
NATIONAL WEATHER SERVICE LITTLE ROCK AR
1200 PM CDT TUE JUL 28 2015

NOTE: "FAIR" INDICATES FEW OR NO CLOUDS BELOW 12,000 FEET WITH NO
SIGNIFICANT WEATHER AND/OR OBSTRUCTIONS TO VISIBILITY.

ARZ001-003-010-029-281800-
NORTHWEST ARKANSAS

CITY           SKY/WX    TMP DP  RH WIND       PRES   REMARKS
FAYETTEVILLE   SUNNY     89  74  60 SW7       30.03R HX  98
FORT SMITH     SUNNY     94  70  45 SW6       29.97S HX 100
HARRISON       SUNNY     91  72  53 SW8       30.04S HX  98
BENTONVILLE    SUNNY     90  70  51 SW8       30.04S HX  95
ROGERS         SUNNY     91  73  55 SW10      30.04R HX  99
SILOAM SPGS    SUNNY     91  70  49 SW10      30.01R HX  97
HIGHFILL       SUNNY     90  75  61 SW8       30.02S HX 100
SPRINGDALE     SUNNY     90  72  55 SW12      30.05R HX  96
$$

ARZ004-005-016-281800-
NORTH CENTRAL ARKANSAS

CITY           SKY/WX    TMP DP  RH WIND       PRES   REMARKS
BATESVILLE     MOSUNNY   93  75  55 SW5       30.00S HX 104
FLIPPIN        SUNNY     91  73  55 W7        29.99S HX 100
MTN HOME       SUNNY     89  75  63 VRB3      30.01S HX  99
$$

ARZ040-041-281800-
WEST CENTRAL ARKANSAS

CITY           SKY/WX    TMP DP  RH WIND       PRES   REMARKS
MENA           MOSUNNY   95  72  46 S7        30.03R HX 103
MOUNT IDA      SUNNY     94  70  45 S7        30.00R HX 100
$$

ARZ009-017-025-026-028-281800-
NORTHEAST ARKANSAS

CITY           SKY/WX    TMP DP  RH WIND       PRES   REMARKS
JONESBORO      MOSUNNY   90  77  65 SW12      29.99S HX 103
NEWPORT        MOSUNNY   96  77  54 VRB7      30.01R HX 110
WALNUT RIDGE   SUNNY     93  75  55 SW9       29.99R HX 104
BLYTHEVILLE    SUNNY     92  81  70 MISG      29.99S HX 112
$$

ARZ022-023-033-042-044-281800-
CENTRAL ARKANSAS

CITY           SKY/WX    TMP DP  RH WIND       PRES   REMARKS
LITTLE ROCK    MOSUNNY   95  72  47 SW8       30.00R HX 103
N LITTLE ROCK  MOSUNNY   94  75  54 W3        30.00R HX 104
JACKSONVILLE   MOSUNNY   97  72  44 S7        29.99S HX 105
SEARCY         SUNNY     94  77  57 S6        30.01S HX 108
HOT SPRINGS    SUNNY     95  71  45 S8        30.01R HX 102
RUSSELLVILLE   SUNNY     92  75  57 S6        29.99R HX 103
CLINTON        FAIR      93  77  59 W6        30.02R HX 107
$$

ARZ036-281800-
EAST ARKANSAS

CITY           SKY/WX    TMP DP  RH WIND       PRES   REMARKS
WEST MEMPHIS   SUNNY     92  80  68 S5        29.99F HX 110
$$

ARZ050-053-066-070-073-281800-
SOUTHWEST ARKANSAS

CITY           SKY/WX    TMP DP  RH WIND       PRES   REMARKS
ARKADELPHIA    FAIR      99  76  47 SW5       30.00S HX 113
CAMDEN         SUNNY     95  73  49 W6        30.00S HX 105
TEXARKANA      SUNNY     94  73  50 S10       30.00R HX 103
EL DORADO      MOSUNNY   94  72  48 S8        30.01R HX 102
DE QUEEN       SUNNY     92  75  57 VRB6      29.97S HX 103
$$

ARZ056-057-069-281800-
SOUTHEAST ARKANSAS

CITY           SKY/WX    TMP DP  RH WIND       PRES   REMARKS
PINE BLUFF     SUNNY     94  75  54 S6        30.01R HX 105
STUTTGART      SUNNY     97  75  49 W6        30.01S HX 109
MONTICELLO     MOSUNNY   93  76  57 W7        30.01R HX 105

$$





USA.gov is the U.S. government's official web portal to all federal, state and local government web resources and services.